SB KEPS @ AMSAT $ORB10064.N 2Line Orbital Elements 10064.AMSAT
HR AMSAT ORBITAL ELEMENTS FOR AMATEUR SATELLITES IN NASA FORMAT FROM WA5QGD FORT WORTH,TX March 5, 2010 Send Subscribe/unsubscribe to KEPS at http://www.amsat.org/mailman/listinfo/keps BID: ORB10064.N
DECODE 2-LINE ELSETS WITH THE FOLLOWING KEY: 1 AAAAAU 00 0 0 BBBBB.BBBBBBBB .CCCCCCCC 00000-0 00000-0 0 DDDZ 2 AAAAA EEE.EEEE FFF.FFFF GGGGGGG HHH.HHHH III.IIII JJ.JJJJJJJJKKKKKZ KEY: A-CATALOGNUM B-EPOCHTIME C-DECAY D-ELSETNUM E-INCLINATION F-RAAN G-ECCENTRICITY H-ARGPERIGEE I-MNANOM J-MNMOTION K-ORBITNUM Z-CHECKSUM
TO ALL RADIO AMATEURS BT
AO-07 1 07530U 74089B 10064.05552185 -.00000027 00000-0 10000-3 0 7199 2 07530 101.4098 083.9414 0012121 117.9442 242.2857 12.53577894615401 FO-29 1 24278U 96046B 10063.61072676 .00000065 00000-0 10071-3 0 2607 2 24278 098.5206 267.1662 0351236 035.2258 327.1555 13.52948889668960 SO-33 1 25509U 98061B 10062.30031871 .00000039 00000-0 -28509-5 0 6615 2 25509 031.4311 027.2919 0353790 084.1291 279.9583 14.28292763592900 RS-22 1 27939U 03042A 10063.57903880 .00000147 00000-0 37100-4 0 245 2 27939 097.9090 293.4117 0014297 034.2512 325.9618 14.63387774343658 VO-52 1 28650U 05017B 10062.38107644 .00000183 00000-0 29724-4 0 4485 2 28650 097.7049 119.8777 0025910 262.5814 097.2508 14.81692347261021 SO-67 1 35870U 09049F 10063.76346260 .00000708 00000-0 33072-4 0 5034 2 35870 097.3463 115.4636 0012845 066.2279 044.0006 15.22918075 25578 HO-68 1 36122U 09072B 10063.12887593 -.00000045 00000-0 00000 0 0 1479 2 36122 100.4825 124.5721 0007169 215.1515 144.9136 13.16279903 10393 UO-11 1 14781U 84021B 10063.55248666 -.00000154 00000-0 -13386-4 0 1896 2 14781 098.0686 114.9066 0008516 210.7500 149.3218 14.79773055396332 AO-16 1 20439U 90005D 10063.36958177 .00000007 00000-0 18020-4 0 8371 2 20439 098.3194 025.4708 0011871 115.8743 244.3662 14.31850318 50384 LO-19 1 20442U 90005G 10062.96498891 -.00000031 00000-0 38137-5 0 7472 2 20442 098.2802 031.3113 0012798 112.4884 247.7654 14.32082706 50496 AO-27 1 22825U 93061C 10062.86614911 .00000082 00000-0 48872-4 0 4700 2 22825 098.4741 013.6028 0007821 214.8077 145.2598 14.29288595857008 IO-26 1 22826U 93061D 10063.02039991 -.00000015 00000-0 10758-4 0 2065 2 22826 098.4679 014.3951 0008417 209.6162 150.4537 14.29542557857137 GO-32 1 25397U 98043D 10062.71290436 .00000027 00000-0 29994-4 0 1269 2 25397 098.3162 075.9609 0001229 163.6982 196.4215 14.23172675605043 NO-44 1 26931U 01043C 10063.68260559 -.00000156 00000-0 -28548-4 0 4013 2 26931 067.0507 113.2244 0006591 263.8515 096.1821 14.29584987439815 SO-50 1 27607U 02058C 10063.21394762 .00000037 00000-0 27567-4 0 1174 2 27607 064.5603 315.3558 0037631 125.8138 234.6479 14.71505981386931 CO-55 1 27844U 03031E 10063.65117429 .00000042 00000-0 39838-4 0 7930 2 27844 098.7134 074.1190 0010745 110.6220 249.6104 14.20688081346243 CO-57 1 27848U 03031J 10063.52469558 .00000049 00000-0 43230-4 0 7458 2 27848 098.7171 073.0713 0010204 113.4976 246.7261 14.20483520346182 AO-51 1 28375U 04025K 10063.55379522 .00000043 00000-0 25270-4 0 6189 2 28375 098.0576 063.0306 0085137 054.8113 306.1015 14.40672092298444 GENESAT1 1 29655U 06058C 10063.17918662 .00045747 00000-0 28432-3 0 9647 2 29655 040.0222 345.0571 0007307 283.5111 076.4891 15.76050162183338 CP3 1 31129U 07012N 10063.35011781 .00000171 00000-0 50023-4 0 5193 2 31129 097.9543 108.4676 0101857 198.4705 161.2782 14.52217008152648 CO-65 1 32785U 08021C 10063.35145705 .00000417 00000-0 59704-4 0 6196 2 32785 097.9081 129.6758 0013889 266.6686 093.2929 14.81596830 99960 KKS-1 1 33493U 09002B 10063.73101852 .00000536 00000-0 76273-4 0 2648 2 33493 098.0723 182.4187 0021080 117.5504 242.7862 14.80878280 60023 SOHLA-1 1 33496U 09002E 10063.23133007 .00000126 00000-0 29479-4 0 406 2 33496 098.0475 173.7282 0006773 167.5232 192.6141 14.69473492 59466 NOAA-10 1 16969U 86073A 10063.35859479 -.00000007 00000-0 15150-4 0 9797 2 16969 098.6683 093.2583 0012771 154.1554 206.0272 14.27408268220629 NOAA-11 1 19531U 88089A 10063.29953373 .00000271 00000-0 16240-3 0 9933 2 19531 098.7696 154.1107 0012294 086.6856 273.5742 14.14917483106304 NOAA-12 1 21263U 91032A 10063.35562494 .00000059 00000-0 43679-4 0 4775 2 21263 098.7698 076.5104 0013253 109.5726 250.6889 14.25619618977464 MET-3/5 1 21655U 91056A 10063.49504657 .00000051 00000-0 10000-3 0 7516 2 21655 082.5586 022.5944 0012221 249.7815 110.1958 13.17019924891892 MET-2/21 1 22782U 93055A 10063.29214336 .00000030 00000-0 13975-4 0 7128 2 22782 082.5521 335.6684 0021972 341.0833 018.9512 13.83643974833574 OKEAN-4 1 23317U 94066A 10061.83581937 .00000096 00000-0 88783-5 0 1674 2 23317 082.5374 093.1284 0020697 229.7326 130.2075 14.82774100830697 NOAA-14 1 23455U 94089A 10063.40006384 -.00000015 00000-0 15466-4 0 9706 2 23455 098.8841 144.8540 0009516 168.2900 191.8517 14.13779797782691 NOAA-15 1 25338U 98030A 10063.52002763 -.00000164 00000-0 -51923-4 0 2895 2 25338 098.6124 052.3631 0011027 025.0624 335.1097 14.24808943613846 RESURS 1 25394U 98043A 10063.10571009 .00000031 00000-0 31010-4 0 4459 2 25394 098.3139 086.8680 0001773 137.2657 222.8670 14.24194337605391 FENGYUN1 1 25730U 99025A 10063.43307986 .00000286 00000-0 19236-3 0 9879 2 25730 098.7775 031.1467 0023218 200.7394 159.2810 14.08177607556941 OKEAN-0 1 25860U 99039A 10063.50959451 .00000059 00000-0 16352-4 0 9297 2 25860 097.8208 039.8338 0001871 071.1004 289.0411 14.73618503571489 NOAA-16 1 26536U 00055A 10063.53550285 -.00000133 00000-0 -46535-4 0 7663 2 26536 099.1758 078.5097 0009705 271.5419 088.4655 14.12547221487058 NOAA-17 1 27453U 02032A 10063.31282362 .00000240 00000-0 12239-3 0 7719 2 27453 098.4451 117.9148 0012725 085.2010 275.0620 14.24136907399772 NOAA-18 1 28654U 05018A 10063.30696064 -.00000010 00000-0 19216-4 0 2575 2 28654 098.9413 009.9302 0014375 353.0355 007.0623 14.11333129246646 NOAA-19 1 33591U 09005A 10063.34307249 -.00000033 00000-0 56606-5 0 4582 2 33591 098.7789 007.7444 0013358 224.0313 135.9807 14.11028924 55120 HUBBLE 1 20580U 90037B 10063.58635383 .00000494 00000-0 25066-4 0 5317 2 20580 028.4681 202.7003 0003608 173.2518 186.8077 15.00910894889025 ISS 1 25544U 98067A 10064.25728148 .00014794 00000-0 10734-3 0 7045 2 25544 051.6468 044.1586 0007596 015.0088 071.6680 15.73640827647108 CO-58 1 28895U 05043F 10062.70450115 .00000201 00000-0 51376-4 0 5261 2 28895 098.0287 310.5895 0016812 254.3483 105.5937 14.59853823231594 FALCON 1 30776U 07006E 10062.90307538 .00000785 00000-0 59432-4 0 7771 2 30776 035.4346 323.4242 0001767 329.1766 030.8846 15.03503669164205 MAST 1 31126U 07012K 10063.72790156 .00000208 00000-0 57310-4 0 8102 2 31126 097.9507 111.0752 0094582 190.1872 169.7396 14.53559986152885 CAPE1 1 31130U 07012P 10063.60914541 .00000098 00000-0 33338-4 0 8291 2 31130 097.9492 108.5811 0102545 198.0336 161.7148 14.52142944152485 COMPASS 1 32787U 08021E 10062.69461208 .00000640 00000-0 87726-4 0 6107 2 32787 097.9049 128.8543 0014726 269.0482 090.9037 14.81778287 99873 AAUSAT2 1 32788U 08021F 10062.43755648 .00000503 00000-0 70141-4 0 6048 2 32788 097.9061 128.7094 0013897 271.7049 088.2512 14.81912900 99842 DO-64 1 32789U 08021G 10062.25201417 .00000339 00000-0 49448-4 0 6200 2 32789 097.9116 128.8849 0014572 269.9126 090.0413 14.81989390 99814 CO-66 1 32791U 08021J 10063.17452524 .00000241 00000-0 37411-4 0 6010 2 32791 097.9066 129.3533 0014996 266.0755 093.8708 14.81579889 99909 RS-30 1 32953U 08025A 10062.60762319 .00000010 00000-0 00000 0 0 5390 2 32953 082.4985 095.3407 0018277 337.2807 022.7470 12.43003847 80623 TACSAT-3 1 35001U 09028A 10063.59728232 .00005590 00000-0 13869-3 0 2303 2 35001 040.4559 121.8641 0023434 301.7054 058.1476 15.40554018 44492 PHARMSAT 1 35002U 09028B 10063.46043939 .00004602 00000-0 11259-3 0 2184 2 35002 040.4710 121.1014 0026495 303.7953 056.0340 15.41189219 44483 HAWKSAT1 1 35003U 09028C 10063.47929045 .00009093 00000-0 20364-3 0 2307 2 35003 040.4637 118.3315 0024650 311.2683 048.6011 15.43091981 44526 CP6 1 35004U 09028D 10063.45530196 .00010586 00000-0 23293-3 0 2236 2 35004 040.4660 118.1620 0023884 310.6795 049.1950 15.43513599 44516 AEROCUB3 1 35005U 09028E 10062.55966831 .00020572 00000-0 43057-3 0 2366 2 35005 040.4755 124.0049 0022106 303.6424 056.2284 15.44653976 44378 DRAGNSAT 1 35690U 09038B 10063.26916647 .00405399 94025-4 40061-3 0 2951 2 35690 051.6303 026.6234 0004055 138.5403 221.6009 16.10700200 34468 POLLUX 1 35693U 09038E 10063.35545927 .00216072 00000-0 32646-3 0 2924 2 35693 051.6318 028.7836 0004938 118.0063 242.1982 16.03794029 34410 CASTOR 1 35694U 09038F 10063.39954103 .00042915 00000-0 14823-3 0 2132 2 35694 051.6373 035.2979 0004643 120.5511 239.6483 15.88743320 34330 METEOR-M 1 35865U 09049A 10063.21008766 .00000176 00000-0 10000-3 0 1416 2 35865 098.7725 117.6946 0001804 323.7744 036.3285 14.21828948 23801 RS-38 1 35869U 09049E 10062.70012911 .00000176 00000-0 10000-3 0 1432 2 35869 098.7728 117.2121 0004425 320.6480 039.4341 14.21976340 23733 /EX